Regional Weather Roundup
Issued by NWS Binghamton, NY

Home | Current Version | Previous Version | Text Only | Print | Product List | Glossary On
Versions: 1 2 3 4 5 6 7 8 9 10 11 12 13 14 15 16 17 18 19 20 21 22 23 24 25 26 27 28
000
ASUS41 KBGM 252010
RWRBGM

REGIONAL WEATHER ROUNDUP
NATIONAL WEATHER SERVICE BINGHAMTON NY
400 PM EDT THU AUG 25 2016

Note: "fair" indicates few or no clouds below 12,000 feet with no
significant weather and/or obstructions to visibility.

* = Station(s) that does not report precipitation, such as rain,
snow, etc, also no thunder or fog.

NYZ009-015>018-022>025-036-037-044>046-055>057-062-252100
...Central New York...

CITY           SKY/WX    TMP DP  RH WIND       PRES   REMARKS
Binghamton     PTSUNNY   75  70  84 SW7       30.03S
Cortland       FAIR      81  72  74 SW6       30.00S
Dansville      MOSUNNY   86  66  51 NW3       29.96F HX  88
Elmira         MOSUNNY   84  71  65 SW7       29.97S HX  89
Ithaca         PTSUNNY   81  72  74 S3        29.99F HX  85
Hamilton       CLOUDY    81  70  69 SE5       29.99F
Hornell        MOSUNNY   82  66  57 NW7       30.02F HX  85
Monticello     CLOUDY    75  70  83 SW8G16    30.05F
Norwich        CLOUDY    75  68  78 S8        30.00F
Oneonta        MOSUNNY   73  64  73 SW7       30.03F
Penn Yan       CLOUDY    84  69  60 NW5       29.97F HX  88
Rome           CLOUDY    78  72  81 SE5       29.95F
Sidney         CLOUDY    77  75  94 SW7       30.01S
Syracuse       CLOUDY    82  71  69 SW6       29.92F HX  86
$$

PAZ038>040-043-044-047-048-072-252100
...Northeast Pennsylvania...

CITY           SKY/WX    TMP DP  RH WIND       PRES   REMARKS
Hazleton       CLOUDY    72  70  94 CALM      30.10F
Scranton       CLOUDY    74  71  91 SW8       30.04R FOG
$$
&&
KEY
WCI = Wind Chill Index
VSB = Visibility
HX  = Heat Index
$$




USA.gov is the U.S. government's official web portal to all federal, state and local government web resources and services.